This is the latest recevied weather packets stored in our database for station/object W8KVG. If no packets are shown the sender has not sent any weather packets the latest 10 day(s).
| Time | Temp. | Humidity | Pressure | Rain* | Wind** | Luminosity | Snow |
|---|---|---|---|---|---|---|---|
| 1777504785 | 11.67° C | 99% | 1007.4 hPa | 0 mm | - | 5 W/m² | - |
| 1777504482 | 11.67° C | 99% | 1007.3 hPa | 0 mm | - | 4 W/m² | - |
| 1777504178 | 12.22° C | 99% | 1007.1 hPa | 0 mm | - | 6 W/m² | - |
| 1777503873 | 11.67° C | 99% | 1007.1 hPa | 0 mm | - | 8 W/m² | - |
| 1777503570 | 12.22° C | 99% | 1007 hPa | 0 mm | - | 8 W/m² | - |
| 1777503267 | 12.22° C | 99% | 1007 hPa | 0.51 mm | - | 5 W/m² | - |
| 1777502963 | 12.78° C | 99% | 1007 hPa | 0 mm | - | 13 W/m² | - |
| 1777502661 | 12.78° C | 99% | 1006.6 hPa | 0 mm | - | 31 W/m² | - |
| 1777502357 | 12.78° C | 99% | 1006.8 hPa | 0.51 mm | - | 19 W/m² | - |
| 1777502054 | 12.78° C | 99% | 1006.9 hPa | 0.51 mm | - | 13 W/m² | - |
| 1777501751 | 12.78° C | 99% | 1006.5 hPa | 0 mm | - | 32 W/m² | - |
| 1777501449 | 12.78° C | 99% | 1006.4 hPa | 0 mm | - | 11 W/m² | - |
| 1777501145 | 13.33° C | 99% | 1006.5 hPa | 0 mm | - | 22 W/m² | - |
| 1777500844 | 13.33° C | 99% | 1006.3 hPa | 0 mm | - | 9 W/m² | - |
| 1777500541 | 13.33° C | 99% | 1006.2 hPa | 0 mm | - | 12 W/m² | - |
| 1777500237 | 13.33° C | 99% | 1006 hPa | 0 mm | - | 16 W/m² | - |
| 1777499934 | 13.33° C | 99% | 1005.8 hPa | 0 mm | - | 23 W/m² | - |
| 1777499630 | 13.89° C | 99% | 1005.9 hPa | 0 mm | - | 28 W/m² | - |
| 1777499327 | 13.89° C | 99% | 1005.9 hPa | 0 mm | - | 53 W/m² | - |
| 1777499025 | 13.89° C | 99% | 1005.9 hPa | 0 mm | - | 54 W/m² | - |
| 1777498721 | 13.89° C | 99% | 1005.9 hPa | 0 mm | - | 36 W/m² | - |
| 1777498418 | 13.89° C | 99% | 1005.8 hPa | 0 mm | - | 21 W/m² | - |
| 1777498115 | 13.33° C | 99% | 1005.7 hPa | 0 mm | - | 37 W/m² | - |
| 1777497812 | 13.89° C | 99% | 1005.4 hPa | 0 mm | - | 29 W/m² | - |
| 1777497508 | 13.89° C | 99% | 1005.5 hPa | 0 mm | - | 25 W/m² | - |
* Rain latest hour (hover to see other rain measurements)
** Current wind speed in m/s (hover to see current wind gust speed)